Location: Burgerwiesen
(48.6500°N, 15.6167°E)
Time: 01:27:15
(UTC+00:00)

Cosmos 1850 Rocket - Pass Details

Date: 09 April 2020
Orbit: 754 x 786 km, 74.0° (Epoch: 30 May)

Event Time Altitude Azimuth Distance (km) Brightness Sun altitude
Exits shadow 20:24:24 18° 214° (SW) 1,803 5.8 -24.0°
Maximum altitude 20:28:17 68° 295° (WNW) 812 4.2 -24.4°
Drops below altitude 10° 20:33:27 10° 19° (NNE) 2,291 6.8 -25.0°
Sets 20:35:51 0° 22° (NNE) 3,222 7.6 -25.2°
